User: anonymous
Location: Caltech
(34.1382°N, 118.1253°W)
Time: 12:51:10
(UTC-07:00)
Language:

Cosmos 2219 Rocket - Orbit

View from above orbital plane
View from above orbital plane
View from above satellite
View from above satellite

Ground track
Ground track

The orbit data is extracted from the following two-line orbital elements,

1 22220U 92076B   14202.15253877  .00000002  00000-0  24944-4 0  3576
2 22220 071.0021 134.6109 0010664 089.4667 005.9228 14.16317681120391
Epoch (UTC): 21 July 2014 03:39:39
Eccentricity: 0.0010664
inclination: 71.0021°
perigee height: 830 km
apogee height: 845 km
right ascension of ascending node: 134.6109°
argument of perigee: 89.4667°
revolutions per day: 14.16317681
mean anomaly at epoch: 5.9228°
orbit number at epoch: 12039

The dashed part of the orbit path shows where the satellite is in the earth's shadow,  

DLR